Regional Weather Roundup
Issued by NWS

Home | Current Version | Previous Version | Graphics & Text | Print | Product List | Glossary On
Versions: 1 2 3 4 5 6 7 8 9 10 11 12 13 14 15 16 17 18 19 20 21 22 23 24 25 26 27 28 29 30 31 32 33 34 35 36 37 38 39 40 41 42 43 44 45 46 47 48 49 50
000
ASUS43 KMPX 292101
RWRMN
WEATHER ROUNDUP FOR MINNESOTA
NATIONAL WEATHER SERVICE TWIN CITIES/CHANHASSEN MN
400 PM CDT FRI APR 29 2016


NOTE: "FAIR" INDICATES FEW OR NO CLOUDS BELOW 12,000 FEET WITH NO
SIGNIFICANT WEATHER AND/OR OBSTRUCTIONS TO VISIBILITY. N/A MEANS
CURRENT SKY AND/OR WEATHER CONDITIONS ARE NOT AVAILABLE.

MNZ060>063-068>070-292200-
   Twin Cities Metro

CITY           SKY/WX    TMP DP  RH WIND       PRES   REMARKS
TWIN CITIES    MOSUNNY   56  34  43 VRB3      30.12R
ST PAUL        SUNNY     58  35  42 VRB6      30.13R
CRYSTAL        SUNNY     59  33  37 CALM      30.11S
BLAINE         MOSUNNY   59  34  38 SE5       30.12S
EDEN PRAIRIE   SUNNY     58  33  39 SE8       30.11R
SOUTH ST PAUL  SUNNY     58  33  39 CALM      30.12R
LAKE ELMO      FAIR      59  34  38 NE6       30.12S
$$
MNZ001>005-007-008-013>017-022>024-027-028-292200-
   Northwest Minnesota

CITY           SKY/WX    TMP DP  RH WIND       PRES   REMARKS
BEMIDJI        SUNNY     59  33  37 NE12G18   30.12S
HALLOCK        SUNNY     63  23  22 N15G21    30.16F
ROSEAU         SUNNY     57  36  44 E14G20    30.19S
WARROAD        SUNNY     54  36  50 NE10      30.21F
THIEF RVR FALL SUNNY     59  30  33 NE13G23   30.15S
CROOKSTON      SUNNY     63  30  29 E17G25    30.13F
FOSSTON        SUNNY     59  30  33 NE14G21   30.13S
DETROIT LAKES  SUNNY     61  32  33 NE10      30.10F
MOORHEAD       SUNNY     63  32  31 E5G20     30.10F
PARK RAPIDS    SUNNY     60  28  29 NE9G18    30.11R
MAHNOMEN       FAIR      59  33  37 NE17      30.11S
$$
MNZ006-009>011-018-025>026-292200-
   North Central Minnesota

CITY           SKY/WX    TMP DP  RH WIND       PRES   REMARKS
BAUDETTE       SUNNY     58  32  37 N16       30.17F
FLAG ISLAND    SUNNY     52  28  40 N13       30.19F
INTL FALLS     SUNNY     55  30  38 N8        30.18F
WASKISH        SUNNY     59  34  38 NE10G16   30.15S
BIG FORK       MOSUNNY   59  30  33 E7        30.14S
LONGVILLE      SUNNY     61  30  31 NE5G16    30.11F
GRAND RAPIDS   SUNNY     57  28  33 NE5       30.14S
CRANE LAKE     SUNNY     52  30  43 NE6       30.20F
ORR            SUNNY     57  27  30 CALM      30.14F
COOK           MOSUNNY   54  32  43 NE5       30.16F
WALKER         FAIR      56  31  39 E8        30.12F
$$
MNZ012-019>021-037-292200-
   Northeast Minnesota

CITY           SKY/WX    TMP DP  RH WIND       PRES   REMARKS
DULUTH         MOSUNNY   51  30  44 E15       30.16S
ELY            CLOUDY    48  28  46 N3        30.18F
HIBBING        SUNNY     55  30  38 NE9G18    30.13F
EVELETH        MOSUNNY   55  30  38 N9        30.16S
DULUTH HARBOR  SUNNY     43  36  75 NE6       30.19F
TWO HARBORS    SUNNY     54  37  54 E12       30.15F
SILVER BAY     SUNNY     50  30  46 E10       30.16F
GRAND MARAIS     N/A     41  31  67 SW3       30.21F
G MARAIS ARPRT SUNNY     48  28  46 S6        30.18F
$$
MNZ029>031-032-039>041-046>048-054>057-064-292200-
   West Central Minnesota

CITY           SKY/WX    TMP DP  RH WIND       PRES   REMARKS
FERGUS FALLS   MOSUNNY   59  34  38 SE7       30.09R
WHEATON        MOSUNNY   61  37  41 SE5       30.13S
MORRIS         PTSUNNY   57  39  51 E6        30.12R
ALEXANDRIA     PTSUNNY   59  33  37 NE8       30.11S
ELBOW LAKE     FAIR      56  34  43 CALM      30.12R
WADENA         SUNNY     61  34  36 NE7G17    30.08F
GLENWOOD       MOSUNNY   61  36  39 E8        30.11F
APPLETON       CLOUDY    55  37  50 E3        30.12S
BENSON         CLOUDY    57  36  44 E3        30.12S
ORTONVILLE     CLOUDY    55  37  50 SE6       30.12S
MADISON        PTSUNNY   57  37  47 NE8       30.12S
WILLMAR        FAIR      57  39  51 NE10G16   30.13S
$$
MNZ033>034-036-042>043-049>051-058-059-292200-
   Central Minnesota

CITY           SKY/WX    TMP DP  RH WIND       PRES   REMARKS
ST CLOUD       SUNNY     58  32  37 E7        30.11F
SAUK CENTRE    MOCLDY    58  35  42 E8        30.11S
PAYNESVILLE    CLOUDY    58  34  40 E7        30.11F
AITKIN         SUNNY     63  23  22 NE10G20   30.10F
PINE RIVER     SUNNY     61  36  39 NE6       30.13S
BRAINERD       SUNNY     59  31  34 E8        30.11S
STAPLES        SUNNY     61  28  29 SE5       30.09F
LONG PRAIRIE   FAIR      57  32  38 E6        30.12S
LITTLE FALLS   SUNNY     57  30  35 E9G16     30.13R
LITCHFIELD     SUNNY     57  37  47 E12       30.11F
BUFFALO        MOSUNNY   57  34  42 E9        30.13S
MAPLE LAKE     SUNNY     58  39  48 NE7       30.13S
HUTCHINSON     MOSUNNY   57  41  54 E10       30.13S
$$
MNZ037-044-045-052-053-292200-
   East Central Minnesota

CITY           SKY/WX    TMP DP  RH WIND       PRES   REMARKS
PRINCETON        N/A     61  34  36 NE8G16    30.12S
MORA           SUNNY     57  30  35 E3        30.13F
CAMBRIDGE      SUNNY     61  39  44 NE10      30.10F
RUSH CITY      SUNNY     60  32  35 E6        30.11F
MOOSE LAKE     SUNNY     57  32  38 NE10      30.11S
HINCKLEY       FAIR      59  34  38 E8G17     30.12S
CLOQUET        SUNNY     52  27  37 E12G17    30.15R
MCGREGOR       SUNNY     59  32  36 NE6       30.12F
$$
MNZ071>073-080-081-089-090-097-098-292200-
   Southwest Minnesota

CITY           SKY/WX    TMP DP  RH WIND       PRES   REMARKS
MONTEVIDEO     CLOUDY    57  41  54 E12       30.14R
GRANITE FALLS  PTSUNNY   58  40  50 E8        30.14R
CANBY          CLOUDY    56  43  62 E9        30.14R
MARSHALL       CLOUDY    53  39  59 SE10      30.13R
REDWOOD FALLS  CLOUDY    54  37  52 E12       30.11S
OLIVIA         PTSUNNY   55  37  50 E12       30.11S
PIPESTONE      CLOUDY    50  37  62 SE7       30.12S
WINDOM         CLOUDY    52  37  58 E6        30.11F
WORTHINGTON    CLOUDY    49  39  68 E9        30.12F
JACKSON        CLOUDY    50  37  62 E9        30.12F
TRACY          CLOUDY    52  41  64 E8        30.13S
SLAYTON        CLOUDY    49  40  70 E9        30.13S
$$
MNZ065>067-074>077-082>085-091>093-292200-
   South Central Minnesota

CITY           SKY/WX    TMP DP  RH WIND       PRES   REMARKS
MANKATO        PTSUNNY   55  37  50 E6        30.12S
NEW ULM        PTSUNNY   54  36  50 E8        30.12S
ST JAMES       MOSUNNY   48  36  61 SE7       30.13S
FAIRMONT       CLOUDY    50  30  46 E9        30.11F
GLENCOE        SUNNY     57  40  52 E9        30.12R
OWATONNA       MOSUNNY   55  41  58 E9        30.11F
WASECA         PTSUNNY   54  39  58 E12       30.12F
$$
MNZ078>079-086>088-094>096-292200-
   Southeast Minnesota

CITY           SKY/WX    TMP DP  RH WIND       PRES   REMARKS
ROCHESTER      CLOUDY    50  40  68 NE10      30.13S
RED WING       PTSUNNY   57  37  47 SE7       30.11S
STANTON        PTSUNNY   58  38  47 E7        30.11R
DODGE CENTER   CLOUDY    52  39  62 E9        30.12F
WINONA         CLOUDY    54  41  62 CALM      30.13F
AUSTIN         CLOUDY    48  39  71 E10       30.12S
PRESTON        CLOUDY    49  37  63 E8        30.12F
$$
ABBREVIATIONS USED IN REMARKS
   TC - TEMPERATURES IN CELSIUS
  WCI - WIND CHILL INDEX
   HX - HEAT INDEX
  VSB - VISIBILITY
$$




USA.gov is the U.S. government's official web portal to all federal, state and local government web resources and services.